Time,TemperatureF,DewpointF,PressureIn,WindDirection,WindDirectionDegrees,WindSpeedMPH,WindSpeedGustMPH,Humidity,HourlyPrecipIn,Conditions,Clouds,dailyrainin,SoftwareType,DateUTC
2013-10-16 00:02:00,66.2,60.6,29.87,SSW,202,2.0,6.0,82,0.00,,,0.00,meteohub,2013-10-16 05:02:00,
2013-10-16 00:07:00,66.2,60.6,29.87,SW,225,3.0,6.0,82,0.00,,,0.00,meteohub,2013-10-16 05:07:00,
2013-10-16 00:12:00,66.2,60.6,29.87,South,180,2.0,5.0,82,0.00,,,0.00,meteohub,2013-10-16 05:12:00,
2013-10-16 00:22:00,66.2,60.3,29.87,SSW,202,0.0,4.0,81,0.00,,,0.00,meteohub,2013-10-16 05:22:00,
2013-10-16 00:27:00,66.2,60.3,29.87,SSW,202,2.0,6.0,81,0.00,,,0.00,meteohub,2013-10-16 05:27:00,
2013-10-16 00:32:00,66.2,60.3,29.87,SSW,202,4.0,6.0,81,0.00,,,0.00,meteohub,2013-10-16 05:32:00,
2013-10-16 00:37:00,66.0,60.4,29.87,SSW,202,0.0,6.0,82,0.00,,,0.00,meteohub,2013-10-16 05:37:00,
2013-10-16 00:42:00,66.0,60.4,29.87,SSW,202,0.0,6.0,82,0.00,,,0.00,meteohub,2013-10-16 05:42:00,
2013-10-16 00:47:00,66.0,60.4,29.87,South,180,3.0,6.0,82,0.00,,,0.00,meteohub,2013-10-16 05:47:00,
2013-10-16 00:52:00,66.0,60.4,29.87,SSW,202,4.0,6.0,82,0.00,,,0.00,meteohub,2013-10-16 05:52:00,
2013-10-16 00:57:00,66.0,60.4,29.87,SSW,202,3.0,6.0,82,0.00,,,0.00,meteohub,2013-10-16 05:57:00,
2013-10-16 01:02:00,65.8,60.3,29.87,SSW,202,1.0,6.0,82,0.00,,,0.00,meteohub,2013-10-16 06:02:00,
2013-10-16 01:07:00,65.7,60.1,29.87,SSW,202,0.0,4.0,82,0.00,,,0.00,meteohub,2013-10-16 06:07:00,
2013-10-16 01:12:00,65.7,60.4,29.87,SW,225,0.0,4.0,83,0.00,,,0.00,meteohub,2013-10-16 06:12:00,
2013-10-16 01:17:00,65.5,60.3,29.87,SSW,202,0.0,4.0,83,0.00,,,0.00,meteohub,2013-10-16 06:17:00,
2013-10-16 01:22:00,65.5,60.4,29.90,SW,225,0.0,4.0,84,0.00,,,0.00,meteohub,2013-10-16 06:22:00,
2013-10-16 01:27:00,65.3,60.3,29.90,SW,225,0.0,2.0,84,0.00,,,0.00,meteohub,2013-10-16 06:27:00,
2013-10-16 01:32:00,65.3,60.3,29.90,SSW,202,0.0,2.0,84,0.00,,,0.00,meteohub,2013-10-16 06:32:00,
2013-10-16 01:37:00,65.1,60.4,29.87,WSW,248,0.0,2.0,85,0.00,,,0.00,meteohub,2013-10-16 06:37:00,
2013-10-16 01:42:00,65.1,60.4,29.87,SSW,202,0.0,2.0,85,0.00,,,0.00,meteohub,2013-10-16 06:42:00,
2013-10-16 01:47:00,64.9,60.6,29.87,South,180,4.0,4.0,86,0.00,,,0.00,meteohub,2013-10-16 06:47:00,
2013-10-16 01:52:00,64.9,60.6,29.87,SSW,202,2.0,4.0,86,0.00,,,0.00,meteohub,2013-10-16 06:52:00,
2013-10-16 01:57:00,64.8,60.8,29.87,SSW,202,1.0,4.0,87,0.00,,,0.00,meteohub,2013-10-16 06:57:00,
2013-10-16 02:02:00,64.8,60.8,29.87,SSW,202,0.0,4.0,87,0.00,,,0.00,meteohub,2013-10-16 07:02:00,
2013-10-16 02:07:00,64.8,60.8,29.87,WSW,248,0.0,4.0,87,0.00,,,0.00,meteohub,2013-10-16 07:07:00,
2013-10-16 02:12:00,64.6,61.0,29.87,SW,225,0.0,4.0,88,0.00,,,0.00,meteohub,2013-10-16 07:12:00,
2013-10-16 02:17:00,64.6,61.0,29.87,SW,225,0.0,1.0,88,0.00,,,0.00,meteohub,2013-10-16 07:17:00,
2013-10-16 02:22:00,64.4,60.8,29.87,SW,225,0.0,0.0,88,0.00,,,0.00,meteohub,2013-10-16 07:22:00,
2013-10-16 02:27:00,64.4,60.8,29.87,SW,225,0.0,0.0,88,0.00,,,0.00,meteohub,2013-10-16 07:27:00,
2013-10-16 02:32:00,64.2,61.0,29.87,SW,225,0.0,0.0,89,0.00,,,0.00,meteohub,2013-10-16 07:32:00,
2013-10-16 02:37:00,64.2,61.0,29.87,SW,225,0.0,0.0,89,0.00,,,0.00,meteohub,2013-10-16 07:37:00,
2013-10-16 02:42:00,64.2,61.0,29.84,South,180,0.0,0.0,89,0.00,,,0.00,meteohub,2013-10-16 07:42:00,
2013-10-16 02:47:00,64.0,61.0,29.84,ENE,68,0.0,0.0,90,0.00,,,0.00,meteohub,2013-10-16 07:47:00,
2013-10-16 02:57:00,63.9,60.8,29.84,South,180,0.0,0.0,90,0.00,,,0.00,meteohub,2013-10-16 07:57:00,
2013-10-16 03:02:00,63.9,60.8,29.84,SE,135,0.0,0.0,90,0.00,,,0.00,meteohub,2013-10-16 08:02:00,
2013-10-16 03:07:00,63.9,60.8,29.81,SE,135,0.0,0.0,90,0.00,,,0.00,meteohub,2013-10-16 08:07:00,
2013-10-16 03:12:00,63.7,61.0,29.81,SE,135,0.0,0.0,91,0.00,,,0.00,meteohub,2013-10-16 08:12:00,
2013-10-16 03:17:00,63.7,61.0,29.81,SE,135,0.0,0.0,91,0.00,,,0.00,meteohub,2013-10-16 08:17:00,
2013-10-16 03:22:00,63.7,61.0,29.81,South,180,0.0,0.0,91,0.00,,,0.00,meteohub,2013-10-16 08:22:00,
2013-10-16 03:27:00,63.5,60.8,29.84,South,180,0.0,0.0,91,0.00,,,0.00,meteohub,2013-10-16 08:27:00,
2013-10-16 03:32:00,63.5,60.8,29.84,SE,135,0.0,0.0,91,0.00,,,0.00,meteohub,2013-10-16 08:32:00,
2013-10-16 03:37:00,63.5,60.8,29.84,SE,135,0.0,0.0,91,0.00,,,0.00,meteohub,2013-10-16 08:37:00,
2013-10-16 03:42:00,63.3,60.6,29.81,SE,135,0.0,0.0,91,0.00,,,0.00,meteohub,2013-10-16 08:42:00,
2013-10-16 03:47:00,63.3,60.6,29.81,SE,135,0.0,0.0,91,0.00,,,0.00,meteohub,2013-10-16 08:47:00,
2013-10-16 03:52:00,63.3,60.6,29.81,SSE,158,0.0,0.0,91,0.00,,,0.00,meteohub,2013-10-16 08:52:00,
2013-10-16 03:57:00,63.3,61.0,29.81,SE,135,0.0,0.0,92,0.00,,,0.00,meteohub,2013-10-16 08:57:00,
2013-10-16 04:02:00,63.3,61.0,29.81,SSE,158,0.0,0.0,92,0.00,,,0.00,meteohub,2013-10-16 09:02:00,
2013-10-16 04:07:00,63.1,60.8,29.81,South,180,0.0,0.0,92,0.00,,,0.00,meteohub,2013-10-16 09:07:00,
2013-10-16 04:12:00,63.1,60.8,29.81,South,180,0.0,0.0,92,0.00,,,0.00,meteohub,2013-10-16 09:12:00,
2013-10-16 04:17:00,63.1,60.8,29.81,South,180,0.0,0.0,92,0.00,,,0.00,meteohub,2013-10-16 09:17:00,
2013-10-16 04:22:00,63.1,60.8,29.81,SSE,158,0.0,0.0,92,0.00,,,0.00,meteohub,2013-10-16 09:22:00,
2013-10-16 04:27:00,63.1,60.8,29.81,SE,135,0.0,1.0,92,0.00,,,0.00,meteohub,2013-10-16 09:27:00,
2013-10-16 04:32:00,63.1,60.8,29.81,SSE,158,0.0,1.0,92,0.00,,,0.00,meteohub,2013-10-16 09:32:00,
2013-10-16 04:37:00,63.1,60.8,29.81,ESE,112,0.0,1.0,92,0.00,,,0.00,meteohub,2013-10-16 09:37:00,
2013-10-16 04:42:00,63.1,60.8,29.81,South,180,0.0,2.0,92,0.00,,,0.00,meteohub,2013-10-16 09:42:00,
2013-10-16 04:47:00,63.1,60.8,29.81,South,180,0.0,2.0,92,0.00,,,0.00,meteohub,2013-10-16 09:47:00,
2013-10-16 04:52:00,63.1,60.8,29.81,South,180,1.0,2.0,92,0.00,,,0.00,meteohub,2013-10-16 09:52:00,
2013-10-16 04:57:00,63.1,60.8,29.81,SE,135,0.0,1.0,92,0.00,,,0.00,meteohub,2013-10-16 09:57:00,
2013-10-16 05:02:00,63.1,60.8,29.81,South,180,0.0,1.0,92,0.00,,,0.00,meteohub,2013-10-16 10:02:00,
2013-10-16 05:07:00,63.1,61.2,29.81,South,180,0.0,1.0,93,0.00,,,0.00,meteohub,2013-10-16 10:07:00,
2013-10-16 05:12:00,63.1,61.2,29.81,SSW,202,0.0,0.0,93,0.00,,,0.00,meteohub,2013-10-16 10:12:00,
2013-10-16 05:17:00,63.1,61.2,29.81,SSW,202,0.0,1.0,93,0.00,,,0.00,meteohub,2013-10-16 10:17:00,
2013-10-16 05:22:00,63.1,61.2,29.81,SSE,158,0.0,1.0,93,0.00,,,0.00,meteohub,2013-10-16 10:22:00,
2013-10-16 05:27:00,63.1,61.2,29.81,SE,135,0.0,1.0,93,0.00,,,0.00,meteohub,2013-10-16 10:27:00,
2013-10-16 05:32:00,63.1,61.2,29.81,South,180,0.0,1.0,93,0.00,,,0.00,meteohub,2013-10-16 10:32:00,
2013-10-16 05:37:00,63.1,61.2,29.81,SSE,158,0.0,1.0,93,0.00,,,0.00,meteohub,2013-10-16 10:37:00,
2013-10-16 05:42:00,63.1,61.2,29.81,SSE,158,0.0,0.0,93,-99.99,,,0.00,meteohub,2013-10-16 10:42:00,
2013-10-16 05:47:00,63.1,61.2,29.81,South,180,0.0,0.0,93,-99.99,,,0.00,meteohub,2013-10-16 10:47:00,
2013-10-16 05:52:00,63.1,61.2,29.78,SE,135,0.0,0.0,93,-99.99,,,0.00,meteohub,2013-10-16 10:52:00,
2013-10-16 05:57:00,63.1,61.2,29.78,South,180,0.0,1.0,93,-99.99,,,0.00,meteohub,2013-10-16 10:57:00,
2013-10-16 06:02:00,63.1,61.2,29.78,SE,135,0.0,1.0,93,-99.99,,,0.00,meteohub,2013-10-16 11:02:00,
2013-10-16 06:12:00,63.1,61.2,29.81,East,90,0.0,0.0,93,-99.99,,,0.00,meteohub,2013-10-16 11:12:00,
2013-10-16 06:17:00,63.1,61.2,29.81,South,180,2.0,0.0,93,-99.99,,,0.00,meteohub,2013-10-16 11:17:00,
2013-10-16 06:22:00,63.3,61.3,29.81,South,180,0.0,3.0,93,0.00,,,0.00,meteohub,2013-10-16 11:22:00,
2013-10-16 06:27:00,63.3,61.3,29.81,SSW,202,0.0,3.0,93,0.00,,,0.00,meteohub,2013-10-16 11:27:00,
2013-10-16 06:32:00,63.5,61.5,29.81,SW,225,0.0,3.0,93,0.00,,,0.00,meteohub,2013-10-16 11:32:00,
2013-10-16 06:37:00,63.5,61.7,29.81,SE,135,0.0,3.0,94,0.00,,,0.00,meteohub,2013-10-16 11:37:00,
2013-10-16 06:42:00,63.5,61.7,29.81,SSW,202,0.0,3.0,94,0.00,,,0.00,meteohub,2013-10-16 11:42:00,
2013-10-16 06:47:00,63.5,61.7,29.81,SW,225,0.0,3.0,94,0.00,,,0.00,meteohub,2013-10-16 11:47:00,
2013-10-16 06:52:00,63.5,61.7,29.81,SW,225,2.0,3.0,94,0.04,,,0.04,meteohub,2013-10-16 11:52:00,
2013-10-16 06:57:00,63.5,61.7,29.81,SSW,202,0.0,3.0,94,0.04,,,0.04,meteohub,2013-10-16 11:57:00,
2013-10-16 07:02:00,63.5,61.7,29.81,SSW,202,0.0,3.0,94,0.04,,,0.04,meteohub,2013-10-16 12:02:00,
2013-10-16 07:07:00,63.3,61.5,29.81,SSW,202,0.0,3.0,94,0.08,,,0.08,meteohub,2013-10-16 12:07:00,
2013-10-16 07:12:00,63.3,61.5,29.81,SSW,202,0.0,3.0,94,0.08,,,0.08,meteohub,2013-10-16 12:12:00,
2013-10-16 07:17:00,63.3,61.5,29.81,SW,225,2.0,3.0,94,0.08,,,0.08,meteohub,2013-10-16 12:17:00,
2013-10-16 07:22:00,63.3,61.5,29.81,SSW,202,0.0,3.0,94,0.08,,,0.08,meteohub,2013-10-16 12:22:00,
2013-10-16 07:27:00,63.5,61.7,29.81,South,180,0.0,3.0,94,0.08,,,0.08,meteohub,2013-10-16 12:27:00,
2013-10-16 07:32:00,63.5,61.7,29.81,SW,225,3.0,3.0,94,0.08,,,0.08,meteohub,2013-10-16 12:32:00,
2013-10-16 07:37:00,63.5,62.1,29.81,South,180,2.0,7.0,95,0.08,,,0.08,meteohub,2013-10-16 12:37:00,
2013-10-16 07:42:00,63.5,62.1,29.81,SW,225,0.0,7.0,95,0.04,,,0.08,meteohub,2013-10-16 12:42:00,
2013-10-16 07:47:00,63.5,62.1,29.81,SE,135,0.0,7.0,95,0.04,,,0.08,meteohub,2013-10-16 12:47:00,
2013-10-16 07:52:00,63.5,62.1,29.81,SSE,158,0.0,3.0,95,0.04,,,0.08,meteohub,2013-10-16 12:52:00,
2013-10-16 07:57:00,63.5,62.1,29.84,South,180,0.0,2.0,95,0.04,,,0.08,meteohub,2013-10-16 12:57:00,
2013-10-16 08:02:00,63.5,62.1,29.84,SSW,202,0.0,1.0,95,0.04,,,0.08,meteohub,2013-10-16 13:02:00,
2013-10-16 08:07:00,63.7,62.2,29.84,WSW,248,0.0,0.0,95,0.00,,,0.08,meteohub,2013-10-16 13:07:00,
2013-10-16 08:12:00,63.7,62.2,29.84,SSW,202,0.0,2.0,95,0.00,,,0.08,meteohub,2013-10-16 13:12:00,
2013-10-16 08:17:00,63.7,62.2,29.84,SW,225,1.0,2.0,95,0.00,,,0.08,meteohub,2013-10-16 13:17:00,
2013-10-16 08:22:00,63.7,62.6,29.84,South,180,0.0,2.0,96,0.00,,,0.08,meteohub,2013-10-16 13:22:00,
2013-10-16 08:27:00,63.7,62.6,29.84,North,0,2.0,4.0,96,0.00,,,0.08,meteohub,2013-10-16 13:27:00,
2013-10-16 08:32:00,63.7,62.6,29.84,SW,225,2.0,4.0,96,0.00,,,0.08,meteohub,2013-10-16 13:32:00,
2013-10-16 08:37:00,63.9,62.8,29.84,SSW,202,1.0,4.0,96,0.00,,,0.08,meteohub,2013-10-16 13:37:00,
2013-10-16 08:42:00,63.9,62.8,29.84,WSW,248,0.0,3.0,96,0.00,,,0.08,meteohub,2013-10-16 13:42:00,
2013-10-16 08:47:00,64.0,63.0,29.84,SW,225,0.0,3.0,96,0.00,,,0.08,meteohub,2013-10-16 13:47:00,
2013-10-16 08:52:00,64.2,63.1,29.84,SE,135,1.0,2.0,96,0.00,,,0.08,meteohub,2013-10-16 13:52:00,
2013-10-16 08:57:00,64.2,63.1,29.84,South,180,3.0,3.0,96,0.00,,,0.08,meteohub,2013-10-16 13:57:00,
2013-10-16 09:02:00,64.2,63.1,29.84,SSW,202,0.0,4.0,96,0.00,,,0.08,meteohub,2013-10-16 14:02:00,
2013-10-16 09:07:00,64.2,63.1,29.84,SSW,202,0.0,4.0,96,0.00,,,0.08,meteohub,2013-10-16 14:07:00,
2013-10-16 09:12:00,64.4,63.3,29.84,SW,225,0.0,4.0,96,0.00,,,0.08,meteohub,2013-10-16 14:12:00,
2013-10-16 09:17:00,64.4,63.3,29.84,SSW,202,2.0,4.0,96,0.00,,,0.08,meteohub,2013-10-16 14:17:00,
2013-10-16 09:22:00,64.4,63.3,29.84,SSW,202,1.0,4.0,96,0.00,,,0.08,meteohub,2013-10-16 14:22:00,
2013-10-16 09:27:00,64.6,63.5,29.84,SW,225,0.0,3.0,96,0.00,,,0.08,meteohub,2013-10-16 14:27:00,
2013-10-16 09:32:00,64.8,63.7,29.84,SSE,158,1.0,3.0,96,0.00,,,0.08,meteohub,2013-10-16 14:32:00,
2013-10-16 09:37:00,65.1,64.0,29.84,East,90,0.0,3.0,96,0.00,,,0.08,meteohub,2013-10-16 14:37:00,
2013-10-16 09:42:00,65.7,64.8,29.81,South,180,0.0,2.0,97,0.00,,,0.08,meteohub,2013-10-16 14:42:00,
2013-10-16 09:47:00,65.8,64.9,29.81,South,180,0.0,4.0,97,0.00,,,0.08,meteohub,2013-10-16 14:47:00,
2013-10-16 09:52:00,65.8,64.6,29.81,WSW,248,0.0,4.0,96,0.00,,,0.08,meteohub,2013-10-16 14:52:00,
2013-10-16 09:57:00,65.8,64.6,29.81,SSW,202,1.0,4.0,96,-99.99,,,0.08,meteohub,2013-10-16 14:57:00,
2013-10-16 10:02:00,66.0,64.8,29.81,SSW,202,3.0,3.0,96,-99.99,,,0.08,meteohub,2013-10-16 15:02:00,
2013-10-16 10:07:00,66.0,64.8,29.81,West,270,0.0,3.0,96,-99.99,,,0.08,meteohub,2013-10-16 15:07:00,
2013-10-16 10:12:00,66.2,64.9,29.81,SSE,158,2.0,4.0,96,-99.99,,,0.08,meteohub,2013-10-16 15:12:00,
2013-10-16 10:17:00,66.2,64.8,29.81,SW,225,1.0,4.0,95,-99.99,,,0.08,meteohub,2013-10-16 15:17:00,
2013-10-16 10:22:00,66.2,64.8,29.84,SW,225,0.0,5.0,95,-99.99,,,0.08,meteohub,2013-10-16 15:22:00,
2013-10-16 10:27:00,66.4,64.9,29.84,West,270,1.0,5.0,95,-99.99,,,0.08,meteohub,2013-10-16 15:27:00,
2013-10-16 10:32:00,66.4,64.9,29.84,South,180,3.0,5.0,95,-99.99,,,0.08,meteohub,2013-10-16 15:32:00,
2013-10-16 10:37:00,66.6,65.1,29.81,SW,225,2.0,5.0,95,-99.99,,,0.08,meteohub,2013-10-16 15:37:00,
2013-10-16 10:42:00,66.7,64.9,29.81,South,180,0.0,5.0,94,-99.99,,,0.08,meteohub,2013-10-16 15:42:00,
2013-10-16 10:47:00,66.6,64.8,29.81,SW,225,1.0,5.0,94,-99.99,,,0.08,meteohub,2013-10-16 15:47:00,
2013-10-16 10:52:00,66.4,64.2,29.81,SSW,202,3.0,6.0,93,-99.99,,,0.08,meteohub,2013-10-16 15:52:00,
2013-10-16 10:57:00,66.4,64.2,29.81,SSW,202,0.0,6.0,93,-99.99,,,0.08,meteohub,2013-10-16 15:57:00,
2013-10-16 11:02:00,66.4,64.0,29.81,SW,225,3.0,6.0,92,-99.99,,,0.08,meteohub,2013-10-16 16:02:00,
2013-10-16 11:07:00,66.4,64.0,29.81,South,180,0.0,5.0,92,-99.99,,,0.08,meteohub,2013-10-16 16:07:00,
2013-10-16 11:12:00,66.4,64.0,29.81,SSW,202,0.0,5.0,92,-99.99,,,0.08,meteohub,2013-10-16 16:12:00,
2013-10-16 11:17:00,66.4,64.0,29.81,SSW,202,0.0,5.0,92,-99.99,,,0.08,meteohub,2013-10-16 16:17:00,
2013-10-16 11:22:00,66.4,64.0,29.81,SW,225,6.0,7.0,92,-99.99,,,0.08,meteohub,2013-10-16 16:22:00,
2013-10-16 11:27:00,66.4,64.0,29.81,SSW,202,0.0,7.0,92,-99.99,,,0.08,meteohub,2013-10-16 16:27:00,
2013-10-16 11:32:00,66.4,64.0,29.81,SSW,202,0.0,7.0,92,-99.99,,,0.08,meteohub,2013-10-16 16:32:00,
2013-10-16 11:37:00,66.4,64.0,29.81,South,180,1.0,6.0,92,-99.99,,,0.08,meteohub,2013-10-16 16:37:00,
2013-10-16 11:42:00,66.2,63.9,29.81,South,180,3.0,6.0,92,-99.99,,,0.08,meteohub,2013-10-16 16:42:00,
2013-10-16 11:47:00,66.2,63.5,29.81,SSW,202,4.0,7.0,91,-99.99,,,0.08,meteohub,2013-10-16 16:47:00,
2013-10-16 11:52:00,66.0,63.7,29.81,SSW,202,3.0,7.0,92,-99.99,,,0.08,meteohub,2013-10-16 16:52:00,
2013-10-16 11:57:00,66.0,63.7,29.81,South,180,2.0,6.0,92,0.00,,,0.08,meteohub,2013-10-16 16:57:00,
2013-10-16 12:02:00,65.8,63.5,29.81,South,180,0.0,6.0,92,0.00,,,0.08,meteohub,2013-10-16 17:02:00,
2013-10-16 12:07:00,65.8,63.5,29.81,SSW,202,3.0,6.0,92,0.00,,,0.08,meteohub,2013-10-16 17:07:00,
2013-10-16 12:12:00,65.8,63.5,29.81,SSW,202,0.0,7.0,92,0.00,,,0.08,meteohub,2013-10-16 17:12:00,
2013-10-16 12:17:00,66.0,63.9,29.81,SSW,202,0.0,7.0,93,0.00,,,0.08,meteohub,2013-10-16 17:17:00,
2013-10-16 12:22:00,66.0,63.9,29.78,SW,225,3.0,4.0,93,0.00,,,0.08,meteohub,2013-10-16 17:22:00,
2013-10-16 12:27:00,66.0,63.9,29.78,SW,225,0.0,6.0,93,0.00,,,0.08,meteohub,2013-10-16 17:27:00,
2013-10-16 12:32:00,66.0,63.9,29.78,SSW,202,2.0,6.0,93,0.00,,,0.08,meteohub,2013-10-16 17:32:00,
2013-10-16 12:37:00,66.2,64.0,29.81,SSW,202,1.0,5.0,93,0.00,,,0.08,meteohub,2013-10-16 17:37:00,
2013-10-16 12:42:00,66.0,63.9,29.81,SSW,202,1.0,5.0,93,0.00,,,0.08,meteohub,2013-10-16 17:42:00,
2013-10-16 12:47:00,66.0,63.9,29.81,West,270,0.0,5.0,93,0.00,,,0.08,meteohub,2013-10-16 17:47:00,
2013-10-16 12:52:00,65.3,63.0,29.81,SSW,202,0.0,5.0,92,0.00,,,0.08,meteohub,2013-10-16 17:52:00,
2013-10-16 12:57:00,64.9,62.6,29.84,SW,225,0.0,5.0,92,0.00,,,0.08,meteohub,2013-10-16 17:57:00,
2013-10-16 13:02:00,64.8,62.1,29.84,NW,315,2.0,4.0,91,0.00,,,0.08,meteohub,2013-10-16 18:02:00,
2013-10-16 13:07:00,64.4,61.7,29.81,SW,225,0.0,3.0,91,0.00,,,0.08,meteohub,2013-10-16 18:07:00,
2013-10-16 13:12:00,64.4,61.7,29.81,SW,225,1.0,3.0,91,0.00,,,0.08,meteohub,2013-10-16 18:12:00,
2013-10-16 13:17:00,64.2,61.5,29.81,West,270,1.0,3.0,91,0.00,,,0.08,meteohub,2013-10-16 18:17:00,
2013-10-16 13:22:00,63.9,61.2,29.81,WSW,248,0.0,2.0,91,0.00,,,0.08,meteohub,2013-10-16 18:22:00,
2013-10-16 13:27:00,63.9,61.2,29.81,SSW,202,0.0,3.0,91,0.00,,,0.08,meteohub,2013-10-16 18:27:00,
2013-10-16 13:32:00,63.9,61.2,29.81,South,180,0.0,3.0,91,0.00,,,0.08,meteohub,2013-10-16 18:32:00,
2013-10-16 13:37:00,63.7,61.0,29.81,SSW,202,1.0,2.0,91,0.00,,,0.08,meteohub,2013-10-16 18:37:00,
2013-10-16 13:42:00,63.9,61.2,29.81,South,180,0.0,4.0,91,0.00,,,0.08,meteohub,2013-10-16 18:42:00,
2013-10-16 13:47:00,64.0,61.3,29.81,SSW,202,0.0,4.0,91,0.00,,,0.08,meteohub,2013-10-16 18:47:00,
2013-10-16 13:52:00,64.4,61.7,29.81,SW,225,0.0,5.0,91,0.00,,,0.08,meteohub,2013-10-16 18:52:00,
2013-10-16 13:57:00,64.6,62.2,29.81,WSW,248,2.0,5.0,92,0.00,,,0.08,meteohub,2013-10-16 18:57:00,
2013-10-16 14:02:00,64.8,62.4,29.81,SW,225,0.0,5.0,92,0.00,,,0.08,meteohub,2013-10-16 19:02:00,
2013-10-16 14:07:00,64.9,62.6,29.81,SW,225,2.0,4.0,92,0.00,,,0.08,meteohub,2013-10-16 19:07:00,
2013-10-16 14:12:00,64.9,62.2,29.81,WSW,248,2.0,4.0,91,0.00,,,0.08,meteohub,2013-10-16 19:12:00,
2013-10-16 14:17:00,65.1,62.4,29.81,WSW,248,0.0,7.0,91,0.00,,,0.08,meteohub,2013-10-16 19:17:00,
2013-10-16 14:22:00,65.7,63.0,29.78,WNW,292,1.0,7.0,91,0.00,,,0.08,meteohub,2013-10-16 19:22:00,
2013-10-16 14:27:00,66.0,63.3,29.78,SW,225,3.0,7.0,91,0.00,,,0.08,meteohub,2013-10-16 19:27:00,
2013-10-16 14:32:00,66.2,63.1,29.78,SSW,202,2.0,9.0,90,0.00,,,0.08,meteohub,2013-10-16 19:32:00,
2013-10-16 14:37:00,66.4,63.0,29.78,South,180,2.0,9.0,89,0.00,,,0.08,meteohub,2013-10-16 19:37:00,
2013-10-16 14:42:00,66.6,63.0,29.78,SSW,202,3.0,9.0,88,0.00,,,0.08,meteohub,2013-10-16 19:42:00,
2013-10-16 14:47:00,66.7,62.8,29.78,NW,315,2.0,9.0,87,0.00,,,0.08,meteohub,2013-10-16 19:47:00,
2013-10-16 14:52:00,66.7,62.4,29.78,SW,225,1.0,9.0,86,0.00,,,0.08,meteohub,2013-10-16 19:52:00,
2013-10-16 14:57:00,66.6,61.5,29.78,SE,135,5.0,9.0,84,0.00,,,0.08,meteohub,2013-10-16 19:57:00,
2013-10-16 15:02:00,66.6,61.2,29.78,WSW,248,1.0,5.0,83,0.00,,,0.08,meteohub,2013-10-16 20:02:00,
2013-10-16 15:07:00,66.6,61.2,29.78,South,180,1.0,5.0,83,0.00,,,0.08,meteohub,2013-10-16 20:07:00,
2013-10-16 15:12:00,66.7,61.3,29.81,WSW,248,2.0,5.0,83,0.00,,,0.08,meteohub,2013-10-16 20:12:00,
2013-10-16 15:17:00,66.7,60.8,29.81,WSW,248,0.0,5.0,81,0.00,,,0.08,meteohub,2013-10-16 20:17:00,
2013-10-16 15:22:00,66.7,60.4,29.81,SW,225,2.0,6.0,80,0.00,,,0.08,meteohub,2013-10-16 20:22:00,
2013-10-16 15:27:00,66.9,60.3,29.81,SW,225,2.0,6.0,79,0.00,,,0.08,meteohub,2013-10-16 20:27:00,
2013-10-16 15:32:00,67.3,60.3,29.81,SW,225,2.0,6.0,78,0.00,,,0.08,meteohub,2013-10-16 20:32:00,
2013-10-16 15:37:00,67.3,59.5,29.81,South,180,0.0,5.0,76,0.00,,,0.08,meteohub,2013-10-16 20:37:00,
2013-10-16 15:42:00,67.1,59.0,29.81,West,270,2.0,5.0,75,0.00,,,0.08,meteohub,2013-10-16 20:42:00,
2013-10-16 15:47:00,67.1,57.7,29.81,SW,225,3.0,5.0,72,0.00,,,0.08,meteohub,2013-10-16 20:47:00,
2013-10-16 15:52:00,66.9,57.6,29.81,West,270,3.0,4.0,72,0.00,,,0.08,meteohub,2013-10-16 20:52:00,
2013-10-16 15:57:00,66.7,56.7,29.81,SSW,202,3.0,4.0,70,0.00,,,0.08,meteohub,2013-10-16 20:57:00,
2013-10-16 16:02:00,66.6,55.8,29.81,NE,45,1.0,5.0,68,0.00,,,0.08,meteohub,2013-10-16 21:02:00,
2013-10-16 16:07:00,66.6,54.9,29.81,SSW,202,2.0,5.0,66,0.00,,,0.08,meteohub,2013-10-16 21:07:00,
2013-10-16 16:12:00,66.4,54.3,29.81,SW,225,2.0,5.0,65,0.00,,,0.08,meteohub,2013-10-16 21:12:00,
2013-10-16 16:17:00,66.2,54.5,29.81,SW,225,4.0,6.0,66,0.00,,,0.08,meteohub,2013-10-16 21:17:00,
2013-10-16 16:22:00,66.2,54.5,29.81,SSW,202,3.0,8.0,66,0.00,,,0.08,meteohub,2013-10-16 21:22:00,
2013-10-16 16:27:00,66.2,54.9,29.81,SSW,202,2.0,8.0,67,0.00,,,0.08,meteohub,2013-10-16 21:27:00,
2013-10-16 16:32:00,66.0,55.2,29.81,SW,225,1.0,8.0,68,0.00,,,0.08,meteohub,2013-10-16 21:32:00,
2013-10-16 16:37:00,66.0,55.2,29.81,SW,225,3.0,6.0,68,0.00,,,0.08,meteohub,2013-10-16 21:37:00,
2013-10-16 16:42:00,65.8,55.0,29.81,SSW,202,1.0,6.0,68,0.00,,,0.08,meteohub,2013-10-16 21:42:00,
2013-10-16 16:47:00,65.7,54.5,29.81,SSW,202,2.0,5.0,67,0.00,,,0.08,meteohub,2013-10-16 21:47:00,
2013-10-16 16:52:00,65.5,54.3,29.78,SSW,202,0.0,5.0,67,0.00,,,0.08,meteohub,2013-10-16 21:52:00,
2013-10-16 16:57:00,65.5,54.7,29.78,South,180,0.0,5.0,68,0.00,,,0.08,meteohub,2013-10-16 21:57:00,
2013-10-16 17:02:00,65.3,54.5,29.78,SW,225,2.0,4.0,68,0.00,,,0.08,meteohub,2013-10-16 22:02:00,
2013-10-16 17:07:00,65.1,54.7,29.78,SSW,202,0.0,4.0,69,0.00,,,0.08,meteohub,2013-10-16 22:07:00,
2013-10-16 17:12:00,64.9,54.5,29.78,SSW,202,2.0,4.0,69,0.00,,,0.08,meteohub,2013-10-16 22:12:00,
2013-10-16 17:17:00,64.8,54.3,29.78,South,180,0.0,4.0,69,0.00,,,0.08,meteohub,2013-10-16 22:17:00,
2013-10-16 17:22:00,64.8,54.3,29.81,South,180,3.0,4.0,69,0.00,,,0.08,meteohub,2013-10-16 22:22:00,
2013-10-16 17:27:00,64.6,53.8,29.81,SSW,202,2.0,4.0,68,0.00,,,0.08,meteohub,2013-10-16 22:27:00,
2013-10-16 17:32:00,64.6,53.8,29.81,SW,225,0.0,4.0,68,0.00,,,0.08,meteohub,2013-10-16 22:32:00,
2013-10-16 17:37:00,64.4,53.6,29.81,South,180,0.0,3.0,68,0.00,,,0.08,meteohub,2013-10-16 22:37:00,
2013-10-16 17:42:00,64.2,53.8,29.81,South,180,0.0,3.0,69,0.00,,,0.08,meteohub,2013-10-16 22:42:00,
2013-10-16 17:47:00,64.2,53.8,29.81,South,180,0.0,3.0,69,0.00,,,0.08,meteohub,2013-10-16 22:47:00,
2013-10-16 17:52:00,64.0,53.6,29.81,South,180,0.0,3.0,69,0.00,,,0.08,meteohub,2013-10-16 22:52:00,
2013-10-16 17:57:00,63.9,53.4,29.81,South,180,0.0,3.0,69,0.00,,,0.08,meteohub,2013-10-16 22:57:00,
2013-10-16 18:02:00,63.5,53.2,29.81,SSW,202,2.0,3.0,69,0.00,,,0.08,meteohub,2013-10-16 23:02:00,
2013-10-16 18:07:00,63.3,53.1,29.81,SW,225,0.0,3.0,69,0.00,,,0.08,meteohub,2013-10-16 23:07:00,
2013-10-16 18:12:00,63.3,53.1,29.81,South,180,2.0,3.0,69,0.00,,,0.08,meteohub,2013-10-16 23:12:00,
2013-10-16 18:17:00,63.1,52.9,29.81,SW,225,0.0,3.0,69,0.00,,,0.08,meteohub,2013-10-16 23:17:00,
2013-10-16 18:22:00,63.1,52.9,29.81,SW,225,0.0,3.0,69,0.00,,,0.08,meteohub,2013-10-16 23:22:00,
2013-10-16 18:27:00,63.1,53.2,29.81,SSW,202,0.0,3.0,70,0.00,,,0.08,meteohub,2013-10-16 23:27:00,
2013-10-16 18:32:00,62.8,53.2,29.81,SW,225,0.0,3.0,71,0.00,,,0.08,meteohub,2013-10-16 23:32:00,
2013-10-16 18:37:00,62.4,53.2,29.81,SW,225,0.0,2.0,72,0.00,,,0.08,meteohub,2013-10-16 23:37:00,
2013-10-16 18:42:00,62.4,53.2,29.81,South,180,0.0,0.0,72,0.00,,,0.08,meteohub,2013-10-16 23:42:00,
2013-10-16 18:47:00,62.1,52.9,29.81,WSW,248,0.0,1.0,72,0.00,,,0.08,meteohub,2013-10-16 23:47:00,
2013-10-16 18:52:00,62.1,52.9,29.81,West,270,0.0,1.0,72,0.00,,,0.08,meteohub,2013-10-16 23:52:00,
2013-10-16 18:57:00,61.9,52.7,29.81,WSW,248,0.0,1.0,72,0.00,,,0.08,meteohub,2013-10-16 23:57:00,
2013-10-16 19:02:00,61.9,52.7,29.81,WSW,248,0.0,0.0,72,0.00,,,0.08,meteohub,2013-10-17 00:02:00,
2013-10-16 19:07:00,61.7,52.5,29.81,WSW,248,0.0,0.0,72,0.00,,,0.08,meteohub,2013-10-17 00:07:00,
2013-10-16 19:12:00,61.7,52.9,29.81,West,270,2.0,0.0,73,0.00,,,0.08,meteohub,2013-10-17 00:12:00,
2013-10-16 19:17:00,61.7,52.9,29.81,WSW,248,0.0,2.0,73,0.00,,,0.08,meteohub,2013-10-17 00:17:00,
2013-10-16 19:22:00,61.5,52.9,29.81,WSW,248,0.0,2.0,73,0.00,,,0.08,meteohub,2013-10-17 00:22:00,
2013-10-16 19:27:00,61.3,52.2,29.81,WSW,248,0.0,2.0,72,0.00,,,0.08,meteohub,2013-10-17 00:27:00,
2013-10-16 19:32:00,61.3,52.2,29.81,SW,225,0.0,0.0,72,0.00,,,0.08,meteohub,2013-10-17 00:32:00,
2013-10-16 19:37:00,61.3,51.8,29.81,WSW,248,0.0,0.0,71,0.00,,,0.08,meteohub,2013-10-17 00:37:00,
2013-10-16 19:42:00,61.0,51.1,29.81,SW,225,0.0,0.0,70,0.00,,,0.08,meteohub,2013-10-17 00:42:00,
2013-10-16 19:47:00,60.6,50.7,29.81,SW,225,0.0,0.0,70,0.00,,,0.08,meteohub,2013-10-17 00:47:00,
2013-10-16 19:52:00,60.4,50.5,29.81,SW,225,0.0,0.0,70,0.00,,,0.08,meteohub,2013-10-17 00:52:00,
2013-10-16 19:57:00,60.3,50.4,29.81,SW,225,0.0,0.0,70,0.00,,,0.08,meteohub,2013-10-17 00:57:00,
2013-10-16 20:02:00,59.9,50.2,29.81,SW,225,0.0,0.0,70,0.00,,,0.08,meteohub,2013-10-17 01:02:00,
2013-10-16 20:07:00,59.7,50.0,29.81,SW,225,0.0,0.0,70,0.00,,,0.08,meteohub,2013-10-17 01:07:00,
2013-10-16 20:12:00,59.4,49.6,29.84,SW,225,0.0,0.0,70,0.00,,,0.08,meteohub,2013-10-17 01:12:00,
2013-10-16 20:17:00,59.0,49.3,29.84,SW,225,0.0,0.0,70,0.00,,,0.08,meteohub,2013-10-17 01:17:00,
2013-10-16 20:22:00,58.8,49.5,29.84,SW,225,0.0,0.0,71,0.00,,,0.08,meteohub,2013-10-17 01:22:00,
2013-10-16 20:27:00,58.3,48.9,29.84,SW,225,0.0,0.0,71,0.00,,,0.08,meteohub,2013-10-17 01:27:00,
2013-10-16 20:32:00,58.1,48.7,29.84,SW,225,0.0,0.0,71,0.00,,,0.08,meteohub,2013-10-17 01:32:00,
2013-10-16 20:37:00,57.9,48.6,29.84,SW,225,0.0,0.0,71,0.00,,,0.08,meteohub,2013-10-17 01:37:00,
2013-10-16 20:42:00,57.6,48.2,29.84,SW,225,0.0,0.0,71,0.00,,,0.08,meteohub,2013-10-17 01:42:00,
2013-10-16 20:47:00,57.6,48.6,29.84,SW,225,0.0,0.0,72,0.00,,,0.08,meteohub,2013-10-17 01:47:00,
2013-10-16 20:52:00,57.2,48.2,29.84,SW,225,0.0,0.0,72,0.00,,,0.08,meteohub,2013-10-17 01:52:00,
2013-10-16 20:57:00,56.8,48.7,29.84,SW,225,0.0,0.0,74,0.00,,,0.08,meteohub,2013-10-17 01:57:00,
2013-10-16 21:02:00,56.7,48.6,29.84,SW,225,0.0,0.0,74,0.00,,,0.08,meteohub,2013-10-17 02:02:00,
2013-10-16 21:07:00,56.5,48.4,29.84,SW,225,0.0,0.0,74,0.00,,,0.08,meteohub,2013-10-17 02:07:00,
2013-10-16 21:12:00,56.3,48.2,29.87,SW,225,0.0,0.0,74,0.00,,,0.08,meteohub,2013-10-17 02:12:00,
2013-10-16 21:17:00,55.9,48.2,29.87,SW,225,0.0,0.0,75,0.00,,,0.08,meteohub,2013-10-17 02:17:00,
2013-10-16 21:22:00,55.9,48.2,29.87,SW,225,0.0,0.0,75,0.00,,,0.08,meteohub,2013-10-17 02:22:00,
2013-10-16 21:27:00,55.6,47.8,29.87,SW,225,0.0,0.0,75,0.00,,,0.08,meteohub,2013-10-17 02:27:00,
2013-10-16 21:32:00,55.4,48.0,29.87,SW,225,0.0,0.0,76,0.00,,,0.08,meteohub,2013-10-17 02:32:00,
2013-10-16 21:37:00,55.2,47.8,29.87,SW,225,0.0,0.0,76,0.00,,,0.08,meteohub,2013-10-17 02:37:00,
2013-10-16 21:42:00,55.0,48.0,29.87,SW,225,0.0,0.0,77,0.00,,,0.08,meteohub,2013-10-17 02:42:00,
2013-10-16 21:47:00,54.9,47.8,29.87,SW,225,0.0,0.0,77,0.00,,,0.08,meteohub,2013-10-17 02:47:00,
2013-10-16 21:52:00,54.7,47.7,29.87,SW,225,0.0,0.0,77,0.00,,,0.08,meteohub,2013-10-17 02:52:00,
2013-10-16 21:57:00,54.5,47.8,29.87,SSE,158,0.0,0.0,78,0.00,,,0.08,meteohub,2013-10-17 02:57:00,
2013-10-16 22:02:00,54.5,47.8,29.87,NW,315,0.0,0.0,78,0.00,,,0.08,meteohub,2013-10-17 03:02:00,
2013-10-16 22:07:00,54.7,47.7,29.87,NW,315,0.0,0.0,77,0.00,,,0.08,meteohub,2013-10-17 03:07:00,
2013-10-16 22:12:00,54.5,47.5,29.87,West,270,0.0,0.0,77,0.00,,,0.08,meteohub,2013-10-17 03:12:00,
2013-10-16 22:17:00,54.3,46.9,29.87,NW,315,0.0,0.0,76,0.00,,,0.08,meteohub,2013-10-17 03:17:00,
2013-10-16 22:22:00,54.3,46.6,29.87,North,0,0.0,1.0,75,0.00,,,0.08,meteohub,2013-10-17 03:22:00,
2013-10-16 22:27:00,54.3,46.6,29.84,NNE,22,0.0,1.0,75,0.00,,,0.08,meteohub,2013-10-17 03:27:00,
2013-10-16 22:32:00,54.1,46.4,29.84,North,0,0.0,0.0,75,0.00,,,0.08,meteohub,2013-10-17 03:32:00,
2013-10-16 22:37:00,54.1,46.0,29.84,North,0,0.0,0.0,74,0.00,,,0.08,meteohub,2013-10-17 03:37:00,
2013-10-16 22:42:00,53.8,45.7,29.84,North,0,0.0,0.0,74,0.00,,,0.08,meteohub,2013-10-17 03:42:00,
2013-10-16 22:47:00,53.6,45.1,29.84,North,0,0.0,1.0,73,0.00,,,0.08,meteohub,2013-10-17 03:47:00,
2013-10-16 22:52:00,53.6,45.1,29.87,North,0,0.0,2.0,73,0.00,,,0.08,meteohub,2013-10-17 03:52:00,
2013-10-16 22:57:00,53.4,45.0,29.87,North,0,0.0,2.0,73,0.00,,,0.08,meteohub,2013-10-17 03:57:00,
2013-10-16 23:02:00,53.2,44.8,29.87,NNE,22,0.0,1.0,73,0.00,,,0.08,meteohub,2013-10-17 04:02:00,
2013-10-16 23:07:00,53.2,44.8,29.87,North,0,0.0,0.0,73,0.00,,,0.00,meteohub,2013-10-17 04:07:00,
2013-10-16 23:12:00,53.1,44.6,29.87,North,0,0.0,0.0,73,0.00,,,0.00,meteohub,2013-10-17 04:12:00,
2013-10-16 23:17:00,52.9,44.4,29.87,North,0,0.0,0.0,73,0.00,,,0.00,meteohub,2013-10-17 04:17:00,
2013-10-16 23:22:00,52.5,44.4,29.84,North,0,0.0,0.0,74,0.00,,,0.00,meteohub,2013-10-17 04:22:00,
2013-10-16 23:27:00,52.3,44.2,29.84,ENE,68,0.0,0.0,74,0.00,,,0.00,meteohub,2013-10-17 04:27:00,
2013-10-16 23:32:00,52.0,43.9,29.84,ENE,68,0.0,0.0,74,0.00,,,0.00,meteohub,2013-10-17 04:32:00,
2013-10-16 23:37:00,51.8,43.9,29.87,ENE,68,0.0,0.0,74,0.00,,,0.00,meteohub,2013-10-17 04:37:00,
2013-10-16 23:42:00,51.4,43.9,29.87,ENE,68,0.0,0.0,75,0.00,,,0.00,meteohub,2013-10-17 04:42:00,
2013-10-16 23:47:00,51.3,43.7,29.87,ENE,68,0.0,0.0,75,0.00,,,0.00,meteohub,2013-10-17 04:47:00,
2013-10-16 23:52:00,51.1,43.5,29.87,ENE,68,0.0,0.0,75,0.00,,,0.00,meteohub,2013-10-17 04:52:00,
2013-10-16 23:57:00,50.7,43.5,29.87,ENE,68,0.0,0.0,76,0.00,,,0.00,meteohub,2013-10-17 04:57:00,